Thedford, NE

4:39 PM CDT on September 25, 2016 (GMT -0500)
Thedford

Weather History for KTIF - November, 2013

Change the Weather History Date:

Sunday, November 24, 2013

  Actual Average (KLBF) Record (KLBF)
Temperature  
Mean Temperature 30 °F 31 °F  
Max Temperature 42 °F 46 °F 72 °F (1915)
Min Temperature 17 °F 17 °F -7 °F (1950)
Degree Days  
Heating Degree Days 36 34  
Month to date heating degree days 672  
Since 1 July heating degree days 1341  
Cooling Degree Days 0 0  
Month to date cooling degree days 0  
Year to date cooling degree days 768  
Moisture  
Dew Point 20 °F    
Average Humidity 68    
Maximum Humidity 79    
Minimum Humidity 53    
Precipitation  
Precipitation 0.00 in 0.01 in 0.32 in (1987)
Month to date precipitation 0.54  
Year to date precipitation 19.72  
Snow  
Snow 0.00 in 0.10 in 4.00 in (1895)
Month to date snowfall 3.0  
Since 1 July snowfall 5.3  
Since 1 September snowfall 5.3  
Snow Depth -    
Sea Level Pressure  
Sea Level Pressure 30.19 in    
Wind  
Wind Speed 11 mph (SSW)    
Max Wind Speed 28 mph    
Max Gust Speed 39 mph    
Visibility 10 miles    
Events      
T = Trace of Precipitation, MM = Missing Value Source: NWS Daily Summary

Daily Weather History Graph

Daily Weather History Graph

Search for Another Location

Airport or City:

Trip Planner

Search our weather history database for the weather conditions in past years. The results will help you decide how hot, cold, wet, or windy it might be!

Date:

Astronomy

Nov. 24, 2013 Rise Set
Actual Time 7:43 AM CST 5:14 PM CST
Civil Twilight 7:12 AM CST 5:45 PM CST
Nautical Twilight 6:38 AM CST 6:19 PM CST
Astronomical Twilight 6:04 AM CST 6:53 PM CST
Moon 11:45 PM CST (11/24) 12:29 PM CST (11/24)
Length of Visible Light 10h 32m
Length of Day
9h 31m
Waning Gibbous, 60% of the Moon is Illuminated
Nov 24
Waning Gibbous
Nov 25
Last Quarter
Dec 2
New
Dec 9
First Quarter
Dec 17
Full

Hourly Weather History & Observations

Time (CST) Temp. Windchill Dew Point Humidity Pressure Visibility Wind Dir Wind Speed Gust Speed Precip Events Conditions
12:15 AM 21.0 °F 10.6 °F 13.8 °F 74% 30.47 in 10.0 mi SSW 9.2 mph - N/A   Clear
12:35 AM 20.1 °F 10.3 °F 13.5 °F 75% 30.46 in 10.0 mi SSW 8.1 mph - N/A   Clear
12:55 AM 19.8 °F 9.9 °F 13.1 °F 75% 30.46 in 10.0 mi SSW 8.1 mph - N/A   Clear
1:15 AM 19.4 °F 8.6 °F 12.9 °F 76% 30.45 in 10.0 mi SSW 9.2 mph - N/A   Clear
1:35 AM 19.4 °F 10.4 °F 12.9 °F 76% 30.44 in 10.0 mi SSW 6.9 mph - N/A   Clear
1:55 AM 18.7 °F 10.6 °F 12.2 °F 76% 30.43 in 10.0 mi SW 5.8 mph - N/A   Clear
2:15 AM 18.5 °F 10.4 °F 12.2 °F 76% 30.43 in 10.0 mi SSW 5.8 mph - N/A   Clear
2:35 AM 18.1 °F 10.0 °F 12.2 °F 78% 30.42 in 10.0 mi SSW 5.8 mph - N/A   Clear
2:55 AM 18.3 °F 9.1 °F 12.2 °F 77% 30.42 in 10.0 mi SSW 6.9 mph - N/A   Clear
3:15 AM 18.3 °F 8.2 °F 12.2 °F 77% 30.41 in 10.0 mi SSW 8.1 mph - N/A   Clear
3:35 AM 18.5 °F 8.4 °F 12.4 °F 77% 30.40 in 10.0 mi SSW 8.1 mph - N/A   Clear
3:55 AM 18.5 °F 8.4 °F 12.2 °F 76% 30.39 in 10.0 mi SSW 8.1 mph - N/A   Clear
4:15 AM 18.1 °F 7.9 °F 12.2 °F 78% 30.37 in 10.0 mi SSW 8.1 mph - N/A   Clear
4:35 AM 18.1 °F 7.1 °F 12.2 °F 78% 30.36 in 10.0 mi SSW 9.2 mph - N/A   Clear
4:55 AM 18.5 °F 6.1 °F 12.6 °F 78% 30.35 in 10.0 mi SSW 11.5 mph - N/A   Clear
5:15 AM 19.2 °F 7.7 °F 12.9 °F 76% 30.35 in 10.0 mi SSW 10.4 mph 17.3 mph N/A   Clear
5:35 AM 18.5 °F 8.4 °F 12.7 °F 78% 30.34 in 10.0 mi SSW 8.1 mph - N/A   Clear
5:55 AM 17.6 °F 8.2 °F 12.2 °F 79% 30.34 in 10.0 mi SSW 6.9 mph - N/A   Clear
6:15 AM 18.0 °F 8.7 °F 12.2 °F 78% 30.33 in 10.0 mi South 6.9 mph - N/A   Clear
6:35 AM 17.6 °F 8.2 °F 12.2 °F 79% 30.32 in 10.0 mi SSW 6.9 mph - N/A   Clear
6:55 AM 19.2 °F 7.7 °F 13.1 °F 77% 30.31 in 10.0 mi SSW 10.4 mph - N/A   Clear
7:15 AM 19.4 °F 8.6 °F 13.5 °F 78% 30.31 in 10.0 mi SSW 9.2 mph - N/A   Clear
7:35 AM 20.5 °F 10.8 °F 14.0 °F 76% 30.30 in 10.0 mi SSW 8.1 mph - N/A   Clear
7:55 AM 21.6 °F 11.3 °F 14.5 °F 74% 30.30 in 10.0 mi SSW 9.2 mph - N/A   Clear
8:15 AM 23.0 °F 17.0 °F 15.4 °F 73% 30.30 in 10.0 mi SSW 4.6 mph - N/A   Clear
8:35 AM 24.8 °F 14.6 °F 16.3 °F 70% 30.29 in 10.0 mi SSW 10.4 mph - N/A   Clear
8:55 AM 25.7 °F 16.4 °F 16.5 °F 68% 30.29 in 10.0 mi SSW 9.2 mph - N/A   Clear
9:15 AM 26.2 °F 14.7 °F 16.5 °F 67% 30.28 in 10.0 mi SSW 13.8 mph 18.4 mph N/A   Clear
9:35 AM 27.1 °F 15.9 °F 16.7 °F 65% 30.27 in 10.0 mi South 13.8 mph 19.6 mph N/A   Clear
9:55 AM 30.4 °F 19.1 °F 17.4 °F 59% 30.26 in 10.0 mi SSW 16.1 mph 24.2 mph N/A   Clear
10:15 AM 32.9 °F 21.0 °F 18.7 °F 56% 30.25 in 10.0 mi SSW 20.7 mph 31.1 mph N/A   Clear
10:35 AM 33.8 °F 23.2 °F 19.8 °F 56% 30.23 in 10.0 mi SSW 17.3 mph 25.3 mph N/A   Clear
10:55 AM 34.7 °F 23.7 °F 21.0 °F 57% 30.22 in 10.0 mi SSW 19.6 mph 29.9 mph N/A   Clear
11:15 AM 35.6 °F 24.2 °F 21.6 °F 57% 30.21 in 10.0 mi SSW 21.9 mph 32.2 mph N/A   Clear
11:35 AM 36.5 °F 25.2 °F 22.8 °F 58% 30.19 in 10.0 mi SSW 23.0 mph 29.9 mph N/A   Clear
11:55 AM 37.4 °F 25.4 °F 23.4 °F 57% 30.18 in 10.0 mi SSW 27.6 mph 33.4 mph N/A   Clear
12:15 PM 37.4 °F 26.1 °F 23.9 °F 58% 30.16 in 10.0 mi SSW 24.2 mph 34.5 mph N/A   Clear
12:35 PM 38.1 °F 26.6 °F 24.8 °F 59% 30.14 in 10.0 mi SSW 26.5 mph 39.1 mph N/A   Clear
12:55 PM 38.5 °F 28.6 °F 25.5 °F 60% 30.13 in 10.0 mi SSW 19.6 mph 33.4 mph N/A   Clear
1:15 PM 39.9 °F 28.8 °F 26.4 °F 59% 30.11 in 10.0 mi SSW 27.6 mph 35.7 mph N/A   Clear
1:35 PM 40.8 °F 30.2 °F 27.1 °F 58% 30.10 in 10.0 mi South 26.5 mph 31.1 mph N/A   Clear
1:55 PM 42.3 °F 34.1 °F 27.5 °F 56% 30.09 in 10.0 mi SSW 17.3 mph 33.4 mph N/A   Clear
2:15 PM 42.4 °F 32.8 °F 27.1 °F 55% 30.08 in 10.0 mi SSW 24.2 mph 34.5 mph N/A   Clear
2:35 PM 42.6 °F 32.6 °F 26.6 °F 53% 30.07 in 10.0 mi SSW 26.5 mph 35.7 mph N/A   Clear
2:55 PM 42.3 °F 32.8 °F 26.4 °F 54% 30.05 in 10.0 mi SSW 23.0 mph 35.7 mph N/A   Clear
3:15 PM 41.5 °F 32.1 °F 25.3 °F 53% 30.05 in 10.0 mi SSW 21.9 mph 33.4 mph N/A   Clear
3:35 PM 40.5 °F 30.7 °F 24.6 °F 53% 30.05 in 10.0 mi SSW 21.9 mph 34.5 mph N/A   Clear
3:55 PM 39.4 °F 29.0 °F 24.6 °F 56% 30.07 in 10.0 mi SSW 23.0 mph 31.1 mph N/A   Clear
4:15 PM 38.1 °F 27.9 °F 24.4 °F 58% 30.06 in 10.0 mi SSW 20.7 mph 25.3 mph N/A   Clear
4:35 PM 37.6 °F 27.7 °F 24.8 °F 60% 30.03 in 10.0 mi SSW 18.4 mph 25.3 mph N/A   Clear
4:55 PM 37.4 °F 28.2 °F 25.0 °F 61% 30.03 in 10.0 mi SSW 16.1 mph 20.7 mph N/A   Clear
5:15 PM 36.9 °F 30.1 °F 25.3 °F 63% 30.02 in 10.0 mi SSW 9.2 mph 18.4 mph N/A   Clear
5:35 PM 36.1 °F 32.3 °F 25.2 °F 64% 30.03 in 10.0 mi SSW 4.6 mph - N/A   Clear
5:55 PM 35.8 °F 31.9 °F 25.3 °F 66% 30.02 in 10.0 mi SSW 4.6 mph - N/A   Clear
6:15 PM 35.1 °F - 25.2 °F 67% 30.03 in 10.0 mi Calm Calm - N/A   Clear
6:35 PM 33.6 °F 30.6 °F 25.2 °F 71% 30.03 in 10.0 mi South 3.5 mph - N/A   Clear
6:55 PM 32.5 °F 27.1 °F 25.2 °F 74% 30.03 in 10.0 mi SSW 5.8 mph - N/A   Clear
7:15 PM 36.5 °F 28.7 °F 25.3 °F 64% 30.02 in 10.0 mi SSW 11.5 mph 17.3 mph N/A   Clear
7:35 PM 36.9 °F 29.6 °F 25.2 °F 63% 30.02 in 10.0 mi SW 10.4 mph - N/A   Clear
7:55 PM 36.0 °F 29.6 °F 25.0 °F 64% 30.02 in 10.0 mi SW 8.1 mph - N/A   Clear
8:15 PM 35.4 °F 27.3 °F 24.8 °F 65% 30.01 in 10.0 mi SSW 11.5 mph - N/A   Clear
8:35 PM 35.1 °F 25.5 °F 24.8 °F 66% 29.98 in 10.0 mi South 15.0 mph 20.7 mph N/A   Clear
8:55 PM 34.7 °F 25.5 °F 24.8 °F 67% 29.98 in 10.0 mi South 13.8 mph 24.2 mph N/A   Clear
9:15 PM 33.8 °F 27.7 °F 24.4 °F 69% 30.02 in 10.0 mi WSW 6.9 mph - N/A   Clear
9:35 PM 32.7 °F 27.3 °F 24.6 °F 72% 30.02 in 10.0 mi WSW 5.8 mph - N/A   Clear
9:55 PM 32.0 °F 24.2 °F 24.6 °F 74% 30.01 in 10.0 mi SSW 9.2 mph - N/A   Clear
10:15 PM 32.4 °F 24.0 °F 24.4 °F 73% 30.00 in 10.0 mi SSW 10.4 mph - N/A   Clear
10:35 PM 32.0 °F 24.8 °F 24.4 °F 74% 30.01 in 10.0 mi SW 8.1 mph - N/A   Clear
10:55 PM 32.0 °F 24.8 °F 24.3 °F 73% 30.01 in 10.0 mi SW 8.1 mph - N/A   Clear
11:15 PM 31.8 °F 23.9 °F 24.1 °F 73% 30.01 in 10.0 mi SW 9.2 mph - N/A   Clear
11:35 PM 31.6 °F 25.1 °F 23.9 °F 73% 30.01 in 10.0 mi SW 6.9 mph - N/A   Clear
11:55 PM 31.5 °F 24.2 °F 23.9 °F 74% 30.01 in 10.0 mi SW 8.1 mph - N/A   Clear